Weather in Uyuk

Russia / Tyva Republic     52°04′37″N   94°01′51″E
temp.,
°C
wind,
m/s
gust,
m/s
humid.,
%
clouds,
%
prec.,
mm/h
press.,
hPa
HPBL,
m
16 october, sat
sat1601:00−4se11620 0.0 104212
04:00−5sse22610 0.0 104114
07:00−5se22600 0.0 104114
10:00+1se23370 0.0 1038422
13:00+5se34300 0.0 1034828
16:00+5se34300 0.0 1031582
19:00−1sse22450 0.0 103218
22:00−2sse115216 0.0 103210
17 october, sun
sun1701:00−3ssw115872 0.0 103210
04:00−4sw116266 0.0 103110
07:00−5wsw016564 0.0 103210
10:00+1nne01445 0.0 1030282
13:00+5nne113474 0.0 1027748
16:00+6nne113345 0.0 1026664
19:00+1sse114862 0.0 102810
22:00−1sse115675 0.0 102910
18 october, mon
mon1801:00−2sse116153 0.0 103010
04:00−3s116537 0.0 103110
07:00−4s11695 0.0 103110
10:00+1e01475 0.0 1030310
13:00+6ene11364 0.0 1027787
16:00+6ne11345 0.0 1026662
19:00+1sse22515 0.0 102811
22:000sse11574 0.0 102910
19 october, tue
tue1901:00−2sse116185 0.0 103010
04:00−2s0161100 0.0 103010
07:00−2w0161100 0.0 103110
10:00+2n00467 0.0 1031253
13:00+6nne11365 0.0 1028718
16:00+7ne11330 0.0 1027710
19:00+2sse22490 0.0 103015
22:000se22545 0.0 103112
20 october, wed
wed2001:00−1se11570 0.0 103112
04:00−2sse11605 0.0 103112
07:00−3sse11635 0.0 103211
10:00+3ese12425 0.0 1030326
13:00+7se23306 0.0 1027856
16:00+7se333090 0.0 1025570
19:00+2se2242100 0.0 102622
22:00+2se2244100 0.0 102613